Location: Aurora Center
(43.5271°N, 98.5894°W)
Time: 00:11:02
(UTC-05:00)

BlueWalker 3 - Pass Details

Date: 18 June 2024
Orbit: 480 x 492 km, 53.2° (Epoch: 15 July)

Event Time Altitude Azimuth Distance (km) Brightness Sun altitude
Rises 02:45:25 0° 301° (WNW) 2,538 5.7 -21.2°
Reaches altitude 10° 02:48:04 10° 319° (NW) 1,658 4.9 -21.0°
Maximum altitude 02:50:48 19° 7° (N) 1,204 4.7 -20.9°
Drops below altitude 10° 02:53:32 10° 54° (NE) 1,658 5.3 -20.7°
Sets 02:56:11 0° 73° (ENE) 2,538 6.0 -20.5°
